Location: *
(51.0333°S, 178.4667°E)
Time: 10:35:57
(UTC+00:00)

Meteor 1-5 Rocket - Pass Details

Date: 15 November 2019
Orbit: 789 x 915 km, 81.2° (Epoch: 14 December)

Event Time Altitude Azimuth Distance (km) Brightness Sun altitude
Exits shadow 10:07:46 15° 339° (NNW) 2,048 5.8 -16.9°
Maximum altitude 10:12:15 71° 256° (WSW) 857 4.3 -17.2°
Drops below altitude 10° 10:17:38 10° 171° (S) 2,396 7.4 -17.6°
Sets 10:20:02 0° 168° (SSE) 3,331 8.2 -17.7°
